FUNCUBE-1 (AO-73)

Last updated on Sun Jul 06 2025 00:03:05 GMT+0000 (Coordinated Universal Time)

1 39444U 13066AE 25186.45344054 .00006341 00000+0 47216-3 0 9997 2 39444 97.7799 148.4704 0041076 299.9932 59.7218 15.02618859627476
UTC large
Height (km)
Speed (km/s)
/
Latitude / Longitude
Inclination (degrees)
Orbital Period (minutes)
Azimuth
Elevation
Range (km)
Doppler Factor

Next 0 passes for location: London (51.5072 / 0.1276)

Sorry there are no passes over London.